Terminal Aerodrome Forecast
Issued by NWS Albany, NY

Home | Current Version | Previous Version | Text Only | Print | Product List | Glossary On
Versions: 1 2 3 4 5 6 7 8 9 10 11 12 13 14 15 16 17 18 19 20 21 22 23 24 25
000
FTUS41 KALY 221700
TAFGFL
TAF
KGFL 221721Z 2218/2318 05004KT P6SM VCSH BKN025 OVC040
     FM230200 03003KT 6SM BR VCSH SCT008 BKN025 OVC040
     FM230800 VRB02KT 3SM BR SCT008 OVC015
      AMD NOT SKED=

USA.gov is the U.S. government's official web portal to all federal, state and local government web resources and services.